Yuma MCAS, AZ

10:31 AM MST on April 26, 2018 (GMT -0700)
Yuma Marine Corps Air Station

Weather History for KNYL - September, 2013

Change the Weather History Date:

Sunday, September 8, 2013

  Actual Average Record
Temperature  
Mean Temperature 90 °F 92 °F  
Max Temperature 101 °F 104 °F 115 °F (1979)
Min Temperature 78 °F 79 °F 56 °F (1884)
Degree Days  
Heating Degree Days 0 0  
Month to date heating degree days 0 0  
Since 1 July heating degree days 0 0  
Cooling Degree Days 25 27  
Month to date cooling degree days 234 219  
Year to date cooling degree days 3932 3672  
Growing Degree Days 39 (Base 50)    
Moisture  
Dew Point 64 °F    
Average Humidity 51    
Maximum Humidity 74    
Minimum Humidity 27    
Precipitation  
Precipitation T in 0.02 in 0.91 in (2015)
Month to date precipitation 0.03 0.14  
Year to date precipitation 1.83 2.23  
Sea Level Pressure  
Sea Level Pressure 29.72 in    
Wind  
Wind Speed 6 mph (ESE)    
Max Wind Speed 21 mph    
Max Gust Speed 25 mph    
Visibility 10 miles    
Events Rain , Thunderstorm    
T = Trace of Precipitation, MM = Missing Value Source: NWS Daily Summary

Daily Weather History Graph

Daily Weather History Graph

Search for Another Location

Airport or City:

Astronomy

Sep. 08, 2013 Rise Set
Actual Time 6:17 AM MST 6:53 PM MST
Civil Twilight 5:53 AM MST 7:18 PM MST
Nautical Twilight 5:23 AM MST 7:47 PM MST
Astronomical Twilight 4:54 AM MST 8:17 PM MST
Moon 9:25 AM MST (9/8) 8:46 PM MST (9/8)
Length of Visible Light 13h 25m
Length of Day
12h 35m
Waxing Crescent, 12% of the Moon is Illuminated
Sep 8
Waxing Crescent
Sep 12
First Quarter
Sep 19
Full
Sep 26
Last Quarter
Oct 4
New

Hourly Weather History & Observations

Time (MST) Temp. Heat Index Dew Point Humidity Pressure Visibility Wind Dir Wind Speed Gust Speed Precip Events Conditions
12:57 AM 82.9 °F 84.6 °F 64.9 °F 54% 29.79 in 10.0 mi Calm Calm - N/A   Scattered Clouds
1:57 AM 82.9 °F 85.4 °F 66.9 °F 58% 29.78 in 10.0 mi East 4.6 mph - N/A   Scattered Clouds
2:57 AM 82.0 °F 84.9 °F 68.0 °F 62% 29.77 in 10.0 mi East 3.5 mph - N/A   Scattered Clouds
3:57 AM 80.1 °F 82.3 °F 66.9 °F 64% 29.77 in 10.0 mi SW 5.8 mph - N/A   Scattered Clouds
4:57 AM 79.0 °F - 68.0 °F 69% 29.77 in 10.0 mi West 3.5 mph - N/A   Scattered Clouds
5:57 AM 78.1 °F - 69.1 °F 74% 29.78 in 10.0 mi West 3.5 mph - N/A   Scattered Clouds
6:57 AM 78.1 °F - 69.1 °F 74% 29.78 in 10.0 mi West 4.6 mph - N/A   Partly Cloudy
7:57 AM 81.0 °F 84.4 °F 70.0 °F 69% 29.78 in 10.0 mi WSW 5.8 mph - N/A   Scattered Clouds
8:57 AM 87.1 °F 89.9 °F 66.9 °F 51% 29.78 in 10.0 mi NNW 3.5 mph - N/A   Scattered Clouds
9:57 AM 91.0 °F 93.0 °F 64.9 °F 42% 29.78 in 10.0 mi Calm Calm - N/A   Scattered Clouds
10:57 AM 95.0 °F 95.6 °F 62.1 °F 33% 29.78 in 10.0 mi North 4.6 mph - N/A   Scattered Clouds
11:57 AM 98.1 °F 99.1 °F 62.1 °F 30% 29.76 in 10.0 mi Variable 5.8 mph - N/A   Scattered Clouds
12:57 PM 99.0 °F 99.5 °F 60.1 °F 28% 29.74 in 10.0 mi Variable 4.6 mph - N/A   Scattered Clouds
1:57 PM 98.1 °F 98.1 °F 60.1 °F 28% 29.70 in 10.0 mi Calm Calm - N/A   Scattered Clouds
2:57 PM 100.9 °F 101.6 °F 60.1 °F 26% 29.67 in 10.0 mi NE 10.4 mph - N/A   Mostly Cloudy
3:57 PM 100.0 °F 100.7 °F 60.1 °F 27% 29.66 in 10.0 mi NNE 10.4 mph - N/A   Mostly Cloudy
4:57 PM 98.1 °F 98.6 °F 61.0 °F 29% 29.65 in 10.0 mi SE 12.7 mph - N/A   Mostly Cloudy
5:16 PM 97.0 °F 98.3 °F 63.0 °F 32% 29.66 in 10.0 mi SE 8.1 mph - N/A Thunderstorm Thunderstorm
5:57 PM 93.0 °F 94.2 °F 63.0 °F 37% 29.67 in 7.0 mi ENE 9.2 mph - 0.00 in Rain , Thunderstorm Light Thunderstorms and Rain
6:36 PM 91.0 °F 92.6 °F 64.0 °F 41% 29.68 in 10.0 mi ENE 10.4 mph 20.7 mph 0.00 in   Mostly Cloudy
6:57 PM 91.0 °F 92.6 °F 64.0 °F 41% 29.67 in 10.0 mi NE 5.8 mph - 0.00 in Thunderstorm Thunderstorm
7:50 PM 91.0 °F 90.9 °F 61.0 °F 36% 29.67 in 10.0 mi SE 6.9 mph - N/A Thunderstorm Thunderstorm
7:57 PM 90.0 °F 90.6 °F 63.0 °F 40% 29.67 in 10.0 mi South 6.9 mph - N/A Thunderstorm Thunderstorm
8:07 PM 89.1 °F 91.0 °F 64.9 °F 45% 29.69 in 10.0 mi SSE 15.0 mph 25.3 mph N/A   Mostly Cloudy
8:57 PM 84.9 °F 86.1 °F 64.0 °F 49% 29.70 in 10.0 mi SE 17.3 mph - N/A   Mostly Cloudy
9:57 PM 82.9 °F 83.2 °F 60.1 °F 46% 29.71 in 10.0 mi SSE 12.7 mph - N/A   Mostly Cloudy
10:57 PM 82.0 °F 82.7 °F 61.0 °F 49% 29.71 in 10.0 mi SSE 9.2 mph - N/A   Scattered Clouds
11:57 PM 81.0 °F 81.7 °F 61.0 °F 50% 29.71 in 10.0 mi Calm Calm - N/A   Scattered Clouds